Powrót do katalogu

TIROS 3

AktywnyPogodaLEO
NORAD 162·PAYLOAD·🇺🇸 United States

Wystrzelony Jul 12, 1961 z Cape Canaveral Space Force Station

Loading…

Następne Przeloty (najbliższe 24 godziny)

TLE

ŚwieżeSource: Space-Track

Epoka: Sep 14, 2026, 13:23 UTC

1 00162U 61017A   26257.55793045 -.00000030  00000-0  37598-4 0  9994
2 00162  47.9003 322.4327 0043725 350.8372   9.1720 14.45418603404706

Śledź TIROS 3 w czasie rzeczywistym z AllMySat

Download on the App Store